Location: Dimsdale
(55.1333°N, 118.9833°W)
Time: 15:17:53
(UTC+00:00)

PCSat - Pass Details

Date: 06 December 2023
Orbit: 784 x 792 km, 67.0° (Epoch: 04 March)

Event Time Altitude Azimuth Distance (km) Brightness Sun altitude
Exits shadow 11:57:40 41° 94° (E) 1,142 10.7 -33.8°
Drops below altitude 10° 12:01:55 10° 50° (NE) 2,361 12.6 -33.2°
Sets 12:04:25 0° 44° (NE) 3,295 13.4 -32.8°
